sat.trackr.live / text

‹ back to catalog

GUANGCHUAN 02

NORAD 62112 · 2024-221B

PAYLOAD ACTIVE UNKNOWN

§ Identity

Operator
Country
PRC
Launch date
2024-11-27
Launch site
JSC
Launch vehicle
Mass (kg)
RCS (m²)

External: N2YO · Heavens-Above · Gunter

§ Orbital elements

Epoch: 2026-09-22T20:53:48.770304Z

Period
95.09 min
Inclination
49.9428°
Eccentricity
0.0005791
Mean motion
15.14369910 rev/d
Perigee alt
518.9 km
Apogee alt
526.9 km
Semi-major
6,901.0 km
B*
1.6928e-4
RAAN
46.4102°
Arg perigee
20.3855°
Mean anomaly
339.7326°
Rev number
10,098

§ Raw data

GUANGCHUAN 021 62112U 24221B   26265.87070336  .00002847  00000+0  16928-3 0  99972 62112  49.9428  46.4102 0005791  20.3855 339.7326 15.14369910100982

JSON: /api/v1/satellites/62112 · /tle

For live sub-satellite position, see the globe view (requires WebGL).

§ Visibility from observer

Set your observer location to see the next 7 days of passes ≥ 10°. The values pass through the URL so the page stays shareable.

No JS? Fill the form by hand. The geolocation button needs JavaScript.